| time (UTC) | temp F | wind direction | speed knots | gust knots | rain 1hr in | rain 24hr in | rain mn in | humidity % | barometer mb |
| 20260504204516 | 77 | 183 | 8.7 | 12.2 | 0.00 | 0.00 | 0.00 | 60 | 1003.6 |
| 20260504203537 | 76 | 185 | 9.6 | 13.0 | 0.00 | 0.00 | 0.00 | 59 | 1003.8 |
| 20260504202516 | 76 | 190 | 8.7 | 13.0 | 0.00 | 0.00 | 0.00 | 59 | 1003.9 |
| 20260504201517 | 75 | 166 | 10.4 | 15.6 | 0.00 | 0.00 | 0.00 | 59 | 1004.1 |
| 20260504200016 | 73 | 183 | 8.7 | 12.2 | 0.00 | 0.00 | 0.00 | 65 | 1004.2 |
| 20260504195036 | 72 | 185 | 7.8 | 12.2 | 0.00 | 0.00 | 0.00 | 64 | 1004.4 |
| 20260504194016 | 71 | 180 | 8.7 | 12.2 | 0.00 | 0.00 | 0.00 | 66 | 1004.5 |
| 20260504193016 | 70 | 180 | 8.7 | 12.2 | 0.00 | 0.00 | 0.00 | 69 | 1004.7 |
| 20260504192021 | 69 | 181 | 7.8 | 10.4 | 0.00 | 0.00 | 0.00 | 70 | 1005.0 |
| 20260504191017 | 68 | 177 | 9.6 | 13.9 | 0.00 | 0.00 | 0.00 | 72 | 1004.5 |
| 20260504190037 | 66 | 168 | 10.4 | 14.8 | 0.00 | 0.00 | 0.00 | 71 | 1004.3 |
| 20260504185016 | 66 | 164 | 10.4 | 15.6 | 0.00 | 0.00 | 0.00 | 71 | 1004.5 |
| 20260504184036 | 66 | 171 | 9.6 | 13.0 | 0.00 | 0.00 | 0.00 | 70 | 1005.8 |
| 20260504183017 | 67 | 175 | 8.7 | 13.0 | 0.00 | 0.00 | 0.00 | 69 | 1005.8 |
| 20260504182016 | 67 | 174 | 8.7 | 11.3 | 0.00 | 0.00 | 0.00 | 70 | 1005.9 |
| 20260504181016 | 66 | 179 | 9.6 | 13.0 | 0.00 | 0.00 | 0.00 | 69 | 1005.6 |
| 20260504180016 | 66 | 172 | 9.6 | 13.0 | 0.00 | 0.00 | 0.00 | 69 | 1005.6 |
| 20260504175017 | 66 | 175 | 8.7 | 13.0 | 0.00 | 0.00 | 0.00 | 69 | 1005.7 |
| 20260504174037 | 66 | 174 | 8.7 | 11.3 | 0.00 | 0.00 | 0.00 | 70 | 1005.8 |
| 20260504173016 | 66 | 182 | 7.8 | 11.3 | 0.00 | 0.00 | 0.00 | 69 | 1006.2 |
| 20260504171017 | 65 | 184 | 8.7 | 11.3 | 0.00 | 0.00 | 0.00 | 69 | 1006.3 |
| 20260504151016 | 66 | 180 | 7.8 | 12.2 | 0.00 | 0.00 | 0.00 | 62 | 1007.7 |
| 20260504141016 | 67 | 180 | 8.7 | 13.0 | 0.00 | 0.00 | 0.00 | 61 | 1008.0 |
| 20260504110139 | 61 | 174 | 7.8 | 8.7 | 0.00 | 0.00 | 0.00 | 72 | 1008.6 |
| 20260504081036 | 60 | 84 | 0.0 | 1.7 | 0.00 | 0.00 | 0.00 | 75 | 1009.0 |
| 20260504050017 | 66 | 3 | 0.0 | 1.7 | 0.00 | 0.00 | 0.00 | 58 | 1008.8 |
| 20260504045016 | 66 | 3 | 0.9 | 4.3 | 0.00 | 0.00 | 0.00 | 59 | 1008.6 |
| 20260504044016 | 67 | 118 | 0.9 | 2.6 | 0.00 | 0.00 | 0.00 | 58 | 1008.8 |
| 20260504043016 | 67 | 129 | 0.0 | 1.7 | 0.00 | 0.00 | 0.00 | 57 | 1009.0 |
| 20260504042036 | 68 | 338 | 0.9 | 1.7 | 0.00 | 0.00 | 0.00 | 56 | 1009.2 |
| 20260504041016 | 69 | 207 | 0.0 | 1.7 | 0.00 | 0.00 | 0.00 | 56 | 1009.4 |
| 20260504040016 | 69 | 69 | 0.0 | 2.6 | 0.00 | 0.00 | 0.00 | 55 | 1009.6 |
| 20260504035016 | 70 | 319 | 1.7 | 3.5 | 0.00 | 0.00 | 0.00 | 54 | 1009.4 |
| 20260504034016 | 70 | 273 | 0.9 | 4.3 | 0.00 | 0.00 | 0.00 | 53 | 1009.4 |
| 20260504033016 | 70 | 290 | 1.7 | 4.3 | 0.00 | 0.00 | 0.00 | 53 | 1009.8 |
| 20260504032016 | 70 | 315 | 0.9 | 1.7 | 0.00 | 0.00 | 0.00 | 53 | 1009.9 |
| 20260504031016 | 70 | 340 | 0.9 | 2.6 | 0.00 | 0.00 | 0.00 | 52 | 1010.1 |
| 20260504030016 | 71 | 77 | 0.0 | 2.6 | 0.00 | 0.00 | 0.00 | 51 | 1009.8 |
| 20260504025016 | 71 | 219 | 0.9 | 3.5 | 0.00 | 0.00 | 0.00 | 50 | 1009.8 |
| 20260504024017 | 71 | 335 | 0.9 | 2.6 | 0.00 | 0.00 | 0.00 | 50 | 1009.7 |
| 20260504023016 | 71 | 317 | 0.0 | 1.7 | 0.00 | 0.00 | 0.00 | 51 | 1009.9 |
| 20260504022016 | 72 | 0.0 | 0.0 | 0.00 | 0.00 | 0.00 | 49 | 1009.9 | |
| 20260504021036 | 72 | 269 | 0.0 | 1.7 | 0.00 | 0.00 | 0.00 | 49 | 1009.8 |
| 20260504020016 | 72 | 127 | 0.9 | 1.7 | 0.00 | 0.00 | 0.00 | 49 | 1009.7 |
| 20260504015016 | 72 | 161 | 0.9 | 2.6 | 0.00 | 0.00 | 0.00 | 49 | 1009.8 |
| 20260504014016 | 72 | 245 | 1.7 | 3.5 | 0.00 | 0.00 | 0.00 | 49 | 1009.8 |
| 20260504013016 | 73 | 334 | 0.9 | 2.6 | 0.00 | 0.00 | 0.00 | 48 | 1009.7 |
| 20260504012017 | 73 | 279 | 0.9 | 2.6 | 0.00 | 0.00 | 0.00 | 46 | 1009.2 |
| 20260504011016 | 73 | 240 | 0.9 | 3.5 | 0.00 | 0.00 | 0.00 | 46 | 1009.0 |
| 20260504010017 | 74 | 265 | 0.0 | 1.7 | 0.00 | 0.00 | 0.00 | 46 | 1009.1 |
| 20260504005026 | 74 | 183 | 0.0 | 1.7 | 0.00 | 0.00 | 0.00 | 44 | 1009.1 |
| 20260504004016 | 75 | 126 | 0.0 | 2.6 | 0.00 | 0.00 | 0.00 | 44 | 1009.1 |
| 20260504003016 | 75 | 311 | 0.0 | 1.7 | 0.00 | 0.00 | 0.00 | 43 | 1009.1 |
| 20260504002016 | 75 | 267 | 0.9 | 3.5 | 0.00 | 0.00 | 0.00 | 43 | 1009.1 |
| 20260504001016 | 75 | 257 | 0.9 | 2.6 | 0.00 | 0.00 | 0.00 | 42 | 1009.2 |
| 20260504000017 | 75 | 146 | 0.9 | 3.5 | 0.00 | 0.00 | 0.00 | 41 | 1009.2 |
| 20260503235037 | 76 | 279 | 0.9 | 2.6 | 0.00 | 0.00 | 0.00 | 41 | 1009.3 |
| 20260503234036 | 76 | 317 | 0.9 | 2.6 | 0.00 | 0.00 | 0.00 | 40 | 1009.3 |
| 20260503233016 | 76 | 301 | 0.9 | 3.5 | 0.00 | 0.00 | 0.00 | 41 | 1009.4 |
| 20260503232016 | 76 | 201 | 0.9 | 2.6 | 0.00 | 0.00 | 0.00 | 39 | 1009.5 |
| 20260503231017 | 77 | 290 | 1.7 | 5.2 | 0.00 | 0.00 | 0.00 | 39 | 1009.6 |
| 20260503230016 | 77 | 265 | 1.7 | 5.2 | 0.00 | 0.00 | 0.00 | 38 | 1009.6 |
| 20260503225020 | 77 | 266 | 1.7 | 3.5 | 0.00 | 0.00 | 0.00 | 39 | 1009.7 |
| 20260503224016 | 77 | 294 | 3.5 | 8.7 | 0.00 | 0.00 | 0.00 | 37 | 1009.7 |
| 20260503223017 | 77 | 281 | 1.7 | 7.0 | 0.00 | 0.00 | 0.00 | 38 | 1009.9 |
| 20260503222016 | 77 | 296 | 3.5 | 11.3 | 0.00 | 0.00 | 0.00 | 38 | 1009.9 |
| 20260503221016 | 77 | 279 | 2.6 | 7.0 | 0.00 | 0.00 | 0.00 | 38 | 1010.0 |
| 20260503220017 | 77 | 299 | 3.5 | 9.6 | 0.00 | 0.00 | 0.00 | 36 | 1010.1 |
| 20260503215017 | 77 | 291 | 3.5 | 13.0 | 0.00 | 0.00 | 0.00 | 36 | 1010.3 |
| 20260503214016 | 77 | 286 | 3.5 | 11.3 | 0.00 | 0.00 | 0.00 | 38 | 1010.3 |
| 20260503213016 | 77 | 287 | 3.5 | 10.4 | 0.00 | 0.00 | 0.00 | 39 | 1010.5 |
| 20260503212146 | 76 | 291 | 2.6 | 7.8 | 0.00 | 0.00 | 0.00 | 38 | 1010.5 |
| 20260503211016 | 76 | 291 | 3.5 | 8.7 | 0.00 | 0.00 | 0.00 | 38 | 1010.7 |
| 20260503210016 | 76 | 296 | 3.5 | 11.3 | 0.00 | 0.00 | 0.00 | 38 | 1010.6 |